[[{"header":{"parameterUnit":"m.s-1","parameterCategory":1,"la1":30.2991,"la2":30.254,"lo1":-89.0895,"lo2":-89.0444,"dy":0.0017,"dx":0.0017,"nx":28,"ny":28,"refTime":"2024-07-27T03:00:00:Z","depth":0,"parameterNumber":2,"parameterNumberName":"U-component_of_WINDS"},"data":[0,0,0,0,0,0,0,0,0,0,0,0,0,0,0,0,0,0,0,0,0,0,0,0,0,0,0,0,0,0,0,0,0,0,0,0,0,0,0,0,0,0,0,0,0,0,0,0,0,0,0,0,0,0,0,0,0,0,0.5125,0.5126,0,0.5196,0.5197,0.5198,0.5214,0.5214,0.5213,0.5213,0.529,0.5292,0.5294,0,0,0,0,0,0,0,0,0,0,0,0,0,0.5009,0.5011,0.5125,0.5126,0.5127,0.5196,0.5197,0.5198,0.5215,0.5214,0.5213,0.5213,0.5289,0.5292,0.5295,0,0,0,0,0,0,0,0,0,0,0,0,0,0.5068,0.5012,0.5125,0.5144,0.5146,0.5196,0.5197,0.5198,0.5215,0.5214,0.5213,0.5213,0.5288,0.5291,0.5295,0.5333,0,0,0.5307,0.5308,0,0,0,0,0,0,0,0,0.5064,0.5072,0.514,0.5142,0.5145,0.5196,0.5184,0.5244,0.5215,0.5189,0.5213,0.5212,0.5259,0.5265,0.528,0.5336,0.534,0.5307,0.5309,0.5311,0.5312,0,0,0,0,0,0,0,0.506,0.5069,0.5153,0.5141,0.5144,0.515,0.5157,0.5195,0.5227,0.5191,0.5192,0.52,0.526,0.5277,0.5282,0.5341,0.5307,0.531,0.5312,0.5314,0.5433,0.5434,0,0,0,0,0,0,0.5052,0.5066,0.5151,0.5156,0.5102,0.5152,0.5161,0.518,0.5227,0.5233,0.5201,0.5201,0.5271,0.5278,0.5285,0.5333,0.5311,0.5314,0.5316,0.5433,0.5434,0.5435,0,0,0,0,0,0,0.505,0.506,0.5148,0.5111,0.5123,0.5155,0.5177,0.5182,0.5198,0.5234,0.5241,0.5211,0.527,0.528,0.5321,0.5336,0.5316,0.5319,0.5431,0.5433,0.5434,0.543,0,0,0,0,0,0,0.5046,0.5059,0.5072,0.5111,0.5125,0.5182,0.5178,0.5184,0.5204,0.5205,0.5246,0.5252,0.527,0.5315,0.5325,0.5341,0.5322,0.543,0.5432,0.5434,0.5429,0.5431,0.5433,0,0,0,0,0,0.5042,0.5069,0.5073,0.5083,0.5142,0.5182,0.519,0.521,0.5205,0.522,0.5243,0.525,0.5333,0.5319,0.533,0.5348,0.5429,0.5432,0.5434,0.5428,0.543,0.5432,0,0,0,0,0,0,0.5032,0.5074,0.5079,0.5119,0.5147,0.5185,0.5204,0.5212,0.5243,0.5242,0.5267,0.5276,0.5316,0.5336,0.532,0.5388,0.5381,0.5386,0.5373,0.5376,0.5378,0.5373,0.5325,0,0,0,0,0,0.5035,0.5063,0.5098,0.513,0.5144,0.5171,0.519,0.5203,0.5233,0.5245,0.5272,0.5302,0.5335,0.5357,0.5389,0.5431,0.5442,0.5449,0.5451,0.5452,0.5456,0.5482,0.5486,0.5442,0.5442,0.5442,0,0,0.504,0.5066,0.5083,0.5129,0.5152,0.5182,0.5181,0.5213,0.5236,0.5251,0.5291,0.5312,0.5348,0.539,0.541,0.5408,0.5471,0.5455,0.5456,0.5459,0.5484,0.5488,0.5492,0.5443,0.5443,0.5443,0,0,0.5065,0.5087,0.5117,0.514,0.5174,0.5193,0.52,0.5237,0.5251,0.5292,0.5304,0.5332,0.5388,0.5413,0.5434,0.5469,0.5478,0.5479,0.549,0.5514,0.5518,0.5521,0.5535,0.554,0.5483,0.5483,0.5483,0,0.5068,0.5112,0.5131,0.5162,0.5183,0.5196,0.5227,0.5249,0.5293,0.5308,0.5304,0.5375,0.54,0.5449,0.5458,0.5473,0.5484,0.5475,0.5515,0.5519,0.5522,0.5536,0.5541,0.5483,0.5483,0.5483,0.5483,0,0.5114,0.5145,0.5165,0.5206,0.5229,0.5259,0.5285,0.5306,0.5317,0.5336,0.5378,0.5409,0.5448,0.546,0.5472,0.5512,0.5509,0.551,0.5505,0.5526,0.554,0.5545,0.5483,0.5483,0.5483,0.5483,0,0,0.5135,0.5186,0.5194,0.5213,0.5252,0.5277,0.531,0.5347,0.5365,0.5395,0.5424,0.5471,0.5472,0.5495,0.551,0.5531,0.5559,0.553,0.5531,0.5535,0.5607,0.5606,0.5612,0.5564,0.5565,0.5566,0.5604,0,0.5166,0.5223,0.5241,0.5289,0.5318,0.5332,0.536,0.5389,0.5408,0.5437,0.5459,0.5492,0.5491,0.5505,0.5526,0.5551,0.5574,0.5548,0.5593,0.5594,0.5584,0.5619,0.5618,0.5652,0.5609,0.561,0.5611,0,0.521,0.5239,0.529,0.5327,0.534,0.5365,0.5401,0.5428,0.5461,0.5473,0.5499,0.5512,0.5548,0.5539,0.559,0.5573,0.5592,0.5607,0.5609,0.5615,0.5605,0.5627,0.5664,0.5669,0.5619,0.5618,0.5618,0,0.5221,0.5274,0.5311,0.5327,0.5371,0.5388,0.5408,0.544,0.5461,0.5493,0.5508,0.5544,0.5564,0.5593,0.5616,0.5607,0.5665,0.5658,0.5678,0.5678,0.569,0.5689,0.5732,0.5701,0.5701,0.5701,0.5701,0,0.5254,0.5285,0.5317,0.534,0.5376,0.5397,0.5432,0.5452,0.5481,0.5509,0.5524,0.555,0.5579,0.561,0.5628,0.5668,0.5677,0.5689,0.5694,0.5689,0.5687,0.5702,0.5701,0.5702,0.5702,0.5702,0.5701,0,0.5274,0.5296,0.5338,0.5376,0.5386,0.541,0.5444,0.5467,0.5487,0.5523,0.5533,0.5564,0.5602,0.5627,0.5675,0.5687,0.5732,0.5735,0.572,0.5723,0.5741,0.574,0.5796,0.5806,0.5767,0.5767,0.5768,0,0.5293,0.5317,0.5357,0.5377,0.5396,0.5427,0.5449,0.5472,0.5494,0.5534,0.5554,0.5591,0.5623,0.5682,0.571,0.5748,0.5753,0.5771,0.5759,0.5753,0.5755,0.5754,0.5757,0.5773,0.5773,0.5773,0.5773,0,0.5327,0.5337,0.5367,0.5402,0.5427,0.5456,0.5485,0.55,0.5528,0.5553,0.5591,0.5615,0.5664,0.5702,0.5742,0.5764,0.5774,0.5777,0.5783,0.5779,0.5769,0.5776,0.5726,0.5775,0.5775,0.5775,0.5775,0.5775,0.5348,0.537,0.5402,0.5436,0.546,0.5487,0.5511,0.5534,0.5565,0.5606,0.5618,0.5657,0.5691,0.5746,0.5768,0.58,0.5799,0.5809,0.5811,0.5814,0.5814,0.5763,0.5808,0.5808,0.5808,0.5808,0.5808,0,0.5383,0.5404,0.5435,0.5475,0.5502,0.5507,0.554,0.5563,0.5597,0.5627,0.5658,0.5702,0.5739,0.577,0.5809,0.5829,0.5835,0.5839,0.5838,0.5843,0.5813,0.5803,0.5834,0.5834,0.5834,0.5834,0.5834,0.5833,0.5405,0.5443,0.5457,0.5508,0.553,0.5568,0.5586,0.5612,0.5636,0.5684,0.5715,0.5734,0.5765,0.5807,0.5842,0.585,0.5865,0.5868,0.5877,0.5848,0.5845,0.5842,0.5834,0.587,0.587,0.5905,0.5906,0.5906]},{"header":{"parameterUnit":"m.s-1","parameterCategory":1,"la1":30.2991,"la2":30.254,"lo1":-89.0895,"lo2":-89.0444,"dy":0.0017,"dx":0.0017,"nx":28,"ny":28,"refTime":"2024-07-27T03:00:00:Z","depth":0,"parameterNumber":3,"parameterNumberName":"V-component_of_WINDS"},"data":[0,0,0,0,0,0,0,0,0,0,0,0,0,0,0,0,0,0,0,0,0,0,0,0,0,0,0,0,0,0,0,0,0,0,0,0,0,0,0,0,0,0,0,0,0,0,0,0,0,0,0,0,0,0,0,0,0,0,2.2793,2.2794,0,2.2877,2.2878,2.2879,2.2905,2.2905,2.2905,2.2904,2.2989,2.2991,2.2994,0,0,0,0,0,0,0,0,0,0,0,0,0,2.2656,2.2659,2.2793,2.2794,2.2795,2.2877,2.2878,2.2879,2.2905,2.2905,2.2904,2.2904,2.2988,2.2991,2.2994,0,0,0,0,0,0,0,0,0,0,0,0,0,2.2725,2.2659,2.2793,2.2818,2.2821,2.2876,2.2878,2.2879,2.2905,2.2905,2.2904,2.2904,2.2987,2.2991,2.2995,2.303,0,0,2.3007,2.3008,0,0,0,0,0,0,0,0,2.2721,2.273,2.2813,2.2817,2.282,2.288,2.2861,2.293,2.2906,2.2873,2.2904,2.2903,2.2953,2.296,2.2977,2.3034,2.3038,2.3007,2.3009,2.3011,2.3012,0,0,0,0,0,0,0,2.2716,2.2727,2.2826,2.2815,2.2819,2.2825,2.2835,2.2874,2.2915,2.2876,2.2878,2.2888,2.2955,2.2973,2.2979,2.3039,2.3007,2.301,2.3013,2.3014,2.3131,2.3132,0,0,0,0,0,0,2.2707,2.2723,2.2824,2.2829,2.2768,2.2828,2.2839,2.2861,2.2915,2.2923,2.2888,2.2889,2.2966,2.2974,2.2982,2.3028,2.3011,2.3015,2.3017,2.3131,2.3132,2.3132,0,0,0,0,0,0,2.2704,2.2716,2.282,2.2776,2.279,2.2831,2.2857,2.2863,2.2881,2.2924,2.2932,2.2899,2.2966,2.2976,2.3018,2.3031,2.3016,2.302,2.313,2.3131,2.3132,2.312,0,0,0,0,0,0,2.27,2.2715,2.2729,2.2776,2.2792,2.2855,2.2857,2.2865,2.2888,2.289,2.2936,2.2944,2.2967,2.3012,2.3022,2.3036,2.3023,2.3129,2.313,2.3132,2.3119,2.312,2.3121,0,0,0,0,0,2.2695,2.2722,2.2729,2.2741,2.2811,2.2856,2.2865,2.2891,2.2889,2.2904,2.2931,2.2942,2.3028,2.3016,2.3028,2.3043,2.3128,2.313,2.3132,2.3119,2.312,2.3121,0,0,0,0,0,0,2.2674,2.2728,2.2738,2.278,2.2813,2.286,2.2879,2.2892,2.2926,2.2926,2.2957,2.2967,2.3007,2.3029,2.3015,2.3081,2.3079,2.3083,2.3065,2.3067,2.3068,2.3062,2.3026,0,0,0,0,0,2.2674,2.2707,2.2752,2.2785,2.2802,2.2838,2.2858,2.2876,2.2911,2.2925,2.2956,2.299,2.3025,2.3047,2.3081,2.3123,2.3134,2.3139,2.314,2.3141,2.3144,2.3169,2.3172,2.3138,2.3138,2.3138,0,0,2.2675,2.2709,2.2727,2.2782,2.281,2.2843,2.2849,2.2883,2.2908,2.293,2.2972,2.2996,2.3036,2.3078,2.3098,2.3098,2.3156,2.3143,2.3143,2.3146,2.3171,2.3174,2.3177,2.3139,2.3139,2.3139,0,0,2.2694,2.2722,2.2753,2.2781,2.2823,2.2847,2.2855,2.29,2.2917,2.296,2.2977,2.3007,2.3066,2.3094,2.3116,2.3146,2.3158,2.3157,2.3162,2.3186,2.3189,2.3191,2.3203,2.3206,2.316,2.316,2.316,0,2.2689,2.274,2.2768,2.2802,2.2825,2.2847,2.288,2.2905,2.2956,2.2972,2.2971,2.3047,2.3075,2.3125,2.3132,2.3149,2.3159,2.3152,2.3186,2.3189,2.3192,2.3203,2.3207,2.3159,2.3159,2.3159,2.3159,0,2.2733,2.2767,2.2788,2.2837,2.2863,2.2896,2.2929,2.2952,2.2967,2.2991,2.3035,2.307,2.3112,2.3125,2.314,2.3177,2.3176,2.318,2.3178,2.3194,2.3205,2.321,2.3159,2.3159,2.3159,2.3159,0,0,2.2739,2.2805,2.2812,2.2835,2.2884,2.2911,2.2945,2.2987,2.3007,2.3041,2.3071,2.3121,2.3126,2.315,2.3169,2.3189,2.3212,2.3192,2.3193,2.3195,2.3256,2.3253,2.3258,2.322,2.3221,2.3222,2.3253,0,2.2765,2.2827,2.2853,2.2903,2.2936,2.2958,2.2988,2.3021,2.3044,2.3076,2.3101,2.3137,2.314,2.3155,2.3177,2.3205,2.3225,2.3203,2.3248,2.325,2.3238,2.3263,2.326,2.3288,2.3258,2.3258,2.3259,0,2.2802,2.2838,2.2891,2.2937,2.2952,2.2978,2.3019,2.3049,2.3087,2.3103,2.3131,2.3149,2.3186,2.3181,2.3233,2.3217,2.3237,2.3254,2.3256,2.3261,2.3256,2.327,2.3297,2.3302,2.3266,2.3265,2.3265,0,2.2803,2.2864,2.2904,2.2923,2.2977,2.2996,2.3019,2.3057,2.3081,2.3116,2.3132,2.3172,2.3193,2.3223,2.3251,2.3245,2.3301,2.3298,2.3315,2.3315,2.3326,2.3325,2.3357,2.3338,2.3338,2.3338,2.3338,0,2.2829,2.286,2.2906,2.293,2.2967,2.2997,2.3033,2.3057,2.3091,2.3121,2.3142,2.317,2.3205,2.3237,2.3259,2.3299,2.3309,2.3323,2.3328,2.3321,2.332,2.3335,2.3334,2.3339,2.3339,2.3338,2.3338,0,2.2835,2.2867,2.2912,2.296,2.2973,2.2998,2.3039,2.3064,2.3089,2.3127,2.3137,2.3176,2.3215,2.3246,2.3297,2.3312,2.3355,2.336,2.3342,2.3345,2.336,2.3359,2.3404,2.3412,2.3387,2.3387,2.3387,0,2.285,2.2875,2.2926,2.2948,2.2972,2.3006,2.3031,2.3062,2.3087,2.3133,2.3153,2.3194,2.3228,2.329,2.3323,2.3362,2.3369,2.3383,2.3375,2.3368,2.3371,2.3369,2.3372,2.3384,2.3384,2.3384,2.3384,0,2.2873,2.2887,2.2922,2.2963,2.2992,2.3026,2.306,2.3076,2.3113,2.314,2.3181,2.3208,2.3261,2.3301,2.3344,2.3369,2.3383,2.3386,2.3392,2.3385,2.3374,2.3381,2.3345,2.3385,2.3385,2.3385,2.3385,2.3385,2.2885,2.2909,2.2948,2.2987,2.3016,2.3047,2.3074,2.3102,2.3137,2.3182,2.3199,2.3241,2.3279,2.3339,2.3363,2.3397,2.3398,2.3406,2.3409,2.3411,2.341,2.3368,2.3405,2.3405,2.3405,2.3405,2.3405,0,2.2909,2.2936,2.2971,2.3019,2.3049,2.306,2.3099,2.3123,2.3161,2.3195,2.3229,2.3277,2.3316,2.3353,2.3394,2.3414,2.3422,2.3424,2.3423,2.3429,2.3407,2.3398,2.3417,2.3417,2.3417,2.3417,2.3417,2.3417,2.2926,2.2967,2.2987,2.3043,2.307,2.3112,2.3133,2.3162,2.319,2.3242,2.3276,2.3299,2.3335,2.338,2.3417,2.3427,2.3441,2.3442,2.3453,2.3432,2.343,2.3429,2.342,2.3445,2.3445,2.3473,2.3473,2.3474]}]]